This is the latest recevied weather packets stored in our database for station/object HS3PIK-2. If no packets are shown the sender has not sent any weather packets the latest 10 day(s).
| Time | Temp. | Humidity | Pressure | Rain* | Wind** | Luminosity | Snow |
|---|---|---|---|---|---|---|---|
| 1788598150 | 34.44° C | 65% | - | - | - | 0 W/m² | - |
| 1788597822 | 35.56° C | 62% | - | - | - | 0 W/m² | - |
| 1788597498 | 35.56° C | 61% | - | - | - | 0 W/m² | - |
| 1788597165 | 35.56° C | 63% | - | - | - | 0 W/m² | - |
| 1788596837 | 34.44° C | 63% | - | - | - | 0 W/m² | - |
| 1788596510 | 33.89° C | 67% | - | - | - | 0 W/m² | - |
| 1788596183 | 33.33° C | 67% | - | - | - | 0 W/m² | - |
| 1788595855 | 33.33° C | 66% | - | - | - | 0 W/m² | - |
| 1788595523 | 33.33° C | 67% | - | - | - | 0 W/m² | - |
| 1788595192 | 33.33° C | 68% | - | - | - | 0 W/m² | - |
| 1788594865 | 32.78° C | 70% | - | - | - | 0 W/m² | - |
| 1788594538 | 32.78° C | 70% | - | - | - | 0 W/m² | - |
| 1788594210 | 32.78° C | 71% | - | - | - | 0 W/m² | - |
| 1788593878 | 32.22° C | 71% | - | - | - | 0 W/m² | - |
| 1788593550 | 32.22° C | 71% | - | - | - | 0 W/m² | - |
| 1788593225 | 32.78° C | 70% | - | - | - | 0 W/m² | - |
| 1788592895 | 32.78° C | 68% | - | - | - | 0 W/m² | - |
| 1788592560 | 32.78° C | 69% | - | - | - | 0 W/m² | - |
| 1788592228 | 33.33° C | 67% | - | - | - | 0 W/m² | - |
| 1788591898 | 33.89° C | 68% | - | - | - | 0 W/m² | - |
| 1788591566 | 33.33° C | 69% | - | - | - | 0 W/m² | - |
| 1788591236 | 32.78° C | 69% | - | - | - | 0 W/m² | - |
| 1788590908 | 33.33° C | 69% | - | - | - | 0 W/m² | - |
| 1788590581 | 32.78° C | 70% | - | - | - | 0 W/m² | - |
| 1788590253 | 32.78° C | 71% | - | - | - | 0 W/m² | - |
* Rain since midnight (hover to see other rain measurements)
** Current wind speed in m/s (hover to see current wind gust speed)